Location: Cheyres
(46.8153°N, 6.7877°E)
Time: 01:36:31
(UTC+00:00)

CUBEBUG 2 - Pass Details

Date: 30 June 2022
Orbit: 584 x 692 km, 97.7° (Epoch: 16 August)

Event Time Altitude Azimuth Distance (km) Brightness Sun altitude
Rises 01:51:06 0° 23° (NNE) 2,829 ? -13.7°
Reaches altitude 10° 01:53:31 10° 35° (NE) 1,931 ? -13.5°
Maximum altitude 01:57:07 28° 95° (E) 1,139 ? -13.1°
Drops below altitude 10° 02:00:47 10° 155° (SSE) 1,956 ? -12.8°
Enters shadow 02:01:51 - 162° (SSE) 2,347 ? -12.7°
